Tracking 34094 objects as of 11-May-2026
HD Live streaming from Space Station
objects crossing your sky now

STARLINK-35649

Track STARLINK-35649 now!
10-day predictions
STARLINK-35649 is classified as:


NORAD ID: 66125
Int'l Code: 2025-237M
Perigee: 481.3 km
Apogee: 483.4 km
Inclination: 53.2 °
Period: 94.1 minutes
Semi major axis: 6853 km
RCS: Unknown
Launch date: October 22, 2025
Source: United States (US)
Launch site: AIR FORCE WESTERN TEST RANGE (AFWTR)
Your satellite tracking list
Your tracking list is empty




NASA's NSSDC Master Catalog

Two Line Element Set (TLE):
1 66125U 25237M   26130.66380946  .00008439  00000-0  29670-3 0  9994
2 66125  53.1597 111.4287 0001488  88.8415 271.2756 15.30203313 32108
Source of the keplerian elements: AFSPC